CW4352 Weather Reports


time (UTC)temp
F
wind
direction
speed
knots
gust
knots
rain 1hr
in
rain 24hr
in
rain mn
in
humidity
%
barometer
mb
20260831033205 71 267 1.7 7.8 0.00 0.00 0.00 54 1009.5
20260831031205 72 284 4.3 6.1 0.00 0.00 0.00 54 1009.5
20260831030704 71 286 3.5 6.1 0.00 0.00 0.00 55 1009.5
20260831030204 71 286 3.5 5.2 0.00 0.00 0.00 55 1009.5
20260831024706 71 286 1.7 2.6 0.00 0.00 0.00 58 1009.6
20260831020704 71 287 1.7 5.2 0.00 0.00 0.00 57 1009.9
20260831020205 71 287 4.3 4.3 0.00 0.00 0.00 58 1009.9
20260831014704 72 287 0.9 2.6 0.00 0.00 0.00 56 1009.9
20260831014204 72 287 1.7 2.6 0.00 0.00 0.00 56 1009.9
20260831013705 72 287 0.9 2.6 0.00 0.00 0.00 56 1009.8
20260831011204 72 287 0.9 2.6 0.00 0.00 0.00 56 1009.8
20260831010705 72 287 0.9 2.6 0.00 0.00 0.00 56 1009.8
20260831004705 73 287 1.7 2.6 0.00 0.00 0.00 57 1010.0
20260831001704 73 287 2.6 4.3 0.00 0.00 0.00 55 1010.0
20260831001204 73 287 1.7 2.6 0.00 0.00 0.00 55 1010.0
20260831000204 73 287 1.7 2.6 0.00 0.00 0.00 55 1010.0
20260830234704 74 287 0.9 2.6 0.00 0.00 0.00 54 1010.0
20260830233704 74 287 0.9 2.6 0.00 0.00 0.00 54 1010.0
20260830230706 74 287 2.6 5.2 0.00 0.00 0.00 53 1010.0
20260830221704 74 5 1.7 2.6 0.00 0.00 0.00 54 1009.8
20260830220705 75 5 0.9 2.6 0.00 0.00 0.00 54 1009.8
20260830214704 75 5 0.9 1.7 0.00 0.00 0.00 53 1009.8
20260830213704 75 5 0.9 1.7 0.00 0.00 0.00 53 1009.7
20260830213204 75 5 0.9 2.6 0.00 0.00 0.00 53 1009.5
20260830211204 76 5 0.9 2.6 0.00 0.00 0.00 53 1009.5
20260830201703 77 5 1.7 2.6 0.00 0.00 0.00 50 1009.5
20260830200203 77 5 0.9 1.7 0.00 0.00 0.00 50 1009.5
20260830193703 77 5 0.9 1.7 0.00 0.00 0.00 48 1009.5
20260830191703 79 5 0.9 1.7 0.00 0.00 0.00 46 1009.3
20260830191203 79 5 0.0 0.0 0.00 0.00 0.00 46 1009.3
20260830190703 80 5 0.0 0.0 0.00 0.00 0.00 45 1009.3
20260830184203 82 5 0.0 0.0 0.00 0.00 0.00 42 1009.0
20260830183703 82 5 0.0 0.0 0.00 0.00 0.00 41 1009.0
20260830183204 83 5 0.0 0.0 0.00 0.00 0.00 41 1009.0
20260830181203 84 5 0.0 0.0 0.00 0.00 0.00 38 1008.5
20260830174205 85 5 1.7 2.6 0.00 0.00 0.00 36 1008.5
20260830171205 86 355 1.7 2.6 0.00 0.00 0.00 35 1008.5
20260830170705 87 4 1.7 2.6 0.00 0.00 0.00 35 1008.5
20260830164205 88 11 2.6 4.3 0.00 0.00 0.00 34 1008.6
20260830161205 88 27 1.7 2.6 0.00 0.00 0.00 35 1008.6
20260830160205 88 9 0.9 6.1 0.00 0.00 0.00 35 1008.7
20260830154205 89 36 1.7 4.3 0.00 0.00 0.00 33 1008.7
20260830153705 89 9 0.9 2.6 0.00 0.00 0.00 34 1008.7
20260830151205 89 17 1.7 7.0 0.00 0.00 0.00 30 1008.9
20260830150705 89 5 0.9 2.6 0.00 0.00 0.00 31 1008.9
20260830144205 90 53 1.7 5.2 0.00 0.00 0.00 27 1009.0
20260830143205 90 51 1.7 2.6 0.00 0.00 0.00 29 1009.0
20260830141705 89 22 0.9 2.6 0.00 0.00 0.00 27 1009.0
20260830140205 89 12 1.7 4.3 0.00 0.00 0.00 30 1009.0
20260830134205 89 47 0.9 2.6 0.00 0.00 0.00 29 1009.5
20260830133205 89 36 0.9 5.2 0.00 0.00 0.00 29 1009.5
20260830131705 89 51 1.7 7.0 0.00 0.00 0.00 28 1009.9
20260830131205 89 16 1.7 4.3 0.00 0.00 0.00 27 1009.9
20260830130206 89 46 0.9 2.6 0.00 0.00 0.00 30 1009.9
20260830123705 88 33 0.0 2.6 0.00 0.00 0.00 28 1009.9
20260830123205 88 43 0.9 2.6 0.00 0.00 0.00 28 1010.0
20260830120705 86 332 1.7 6.1 0.00 0.00 0.00 31 1010.0
20260830114705 86 1 2.6 5.2 0.00 0.00 0.00 31 1010.0
20260830113205 85 34 2.6 5.2 0.00 0.00 0.00 32 1010.1
20260830110705 84 4 2.6 7.8 0.00 0.00 0.00 33 1010.1
20260830110205 84 346 2.6 7.8 0.00 0.00 0.00 34 1010.1
20260830104705 84 20 1.7 4.3 0.00 0.00 0.00 34 1010.5
20260830104204 84 19 1.7 4.3 0.00 0.00 0.00 36 1010.5
20260830103205 83 24 4.3 7.0 0.00 0.00 0.00 35 1010.5
20260830101704 83 27 1.7 4.3 0.00 0.00 0.00 36 1010.5
20260830101205 83 22 2.6 8.7 0.00 0.00 0.00 36 1010.7
20260830100205 83 44 0.9 7.0 0.00 0.00 0.00 36 1010.7
20260830094704 83 351 3.5 7.0 0.00 0.00 0.00 35 1010.7
20260830084705 83 336 0.0 2.6 0.00 0.00 0.00 28 1011.1
20260830083705 83 277 0.9 2.6 0.00 0.00 0.00 28 1011.1
20260830081705 82 231 0.0 1.7 0.00 0.00 0.00 28 1011.1
20260830080704 81 231 0.0 0.9 0.00 0.00 0.00 28 1011.1
20260830080204 81 231 0.9 2.6 0.00 0.00 0.00 28 1011.0
20260830074704 79 231 0.0 1.7 0.00 0.00 0.00 29 1010.8
20260830071205 76 231 0.0 2.6 0.00 0.00 0.00 35 1010.6
20260830064204 72 231 0.0 1.7 0.00 0.00 0.00 37 1010.6
20260830063205 71 231 0.0 1.7 0.00 0.00 0.00 37 1010.0
20260830061204 68 231 0.0 0.9 0.00 0.00 0.00 43 1010.0
20260830060705 68 231 0.0 0.9 0.00 0.00 0.00 43 1010.0
20260830060204 68 231 0.0 2.6 0.00 0.00 0.00 43 1010.0
20260830054705 68 231 1.7 2.6 0.00 0.00 0.00 39 1010.0
20260830054204 67 231 1.7 4.3 0.00 0.00 0.00 40 1010.0
20260830053704 67 231 1.7 2.6 0.00 0.00 0.00 39 1010.0
20260830053204 67 231 1.7 2.6 0.00 0.00 0.00 39 1010.0
20260830051705 67 231 1.7 4.3 0.00 0.00 0.00 39 1010.0
20260830051205 67 231 1.7 2.6 0.00 0.00 0.00 40 1010.0
20260830044704 67 231 2.6 5.2 0.00 0.00 0.00 38 1010.0
20260830043705 67 231 2.6 4.3 0.00 0.00 0.00 38 1010.0
20260830043204 67 231 2.6 2.6 0.00 0.00 0.00 38 1010.0
20260830041705 67 231 1.7 2.6 0.00 0.00 0.00 38 1010.0
20260830041205 67 231 1.7 2.6 0.00 0.00 0.00 38 1010.0
20260830040705 67 231 2.6 4.3 0.00 0.00 0.00 38 1010.0
20260830034704 67 230 2.6 4.3 0.00 0.00 0.00 39 1009.9
20260830034204 67 230 2.6 4.3 0.00 0.00 0.00 39 1009.9